Time,TemperatureF,DewpointF,PressureIn,WindDirection,WindDirectionDegrees,WindSpeedMPH,WindSpeedGustMPH,Humidity,HourlyPrecipIn,Conditions,Clouds,dailyrainin,SolarRadiationWatts/m^2,SoftwareType,DateUTC
2013-04-24 00:13:00,29.3,16.0,30.48,East,88,0.0,-999.0,57,-99.99,,,0.00,0,weatherlink.com 1.10,2013-04-24 06:13:00,
2013-04-24 00:28:00,29.0,14.0,30.48,East,88,0.0,-999.0,53,-99.99,,,0.00,0,weatherlink.com 1.10,2013-04-24 06:28:00,
2013-04-24 00:43:00,28.9,13.0,30.48,East,88,0.0,-999.0,51,-99.99,,,0.00,0,weatherlink.com 1.10,2013-04-24 06:43:00,
2013-04-24 00:58:00,29.0,13.0,30.48,East,88,0.0,-999.0,51,-99.99,,,0.00,0,weatherlink.com 1.10,2013-04-24 06:58:00,
2013-04-24 01:13:00,29.0,13.0,30.48,East,88,0.0,-999.0,52,-99.99,,,0.00,0,weatherlink.com 1.10,2013-04-24 07:13:00,
2013-04-24 01:28:00,28.8,12.0,30.48,East,88,0.0,-999.0,50,-99.99,,,0.00,0,weatherlink.com 1.10,2013-04-24 07:28:00,
2013-04-24 01:43:00,28.8,13.0,30.48,NNE,15,0.0,-999.0,51,-99.99,,,0.00,0,weatherlink.com 1.10,2013-04-24 07:43:00,
2013-04-24 01:58:00,28.7,13.0,30.47,NW,306,0.0,-999.0,51,-99.99,,,0.00,0,weatherlink.com 1.10,2013-04-24 07:58:00,
2013-04-24 02:13:00,28.4,12.0,30.47,NW,304,0.0,-999.0,51,-99.99,,,0.00,0,weatherlink.com 1.10,2013-04-24 08:13:00,
2013-04-24 02:28:00,28.2,12.0,30.46,NW,304,0.0,-999.0,52,-99.99,,,0.00,0,weatherlink.com 1.10,2013-04-24 08:28:00,
2013-04-24 02:43:00,27.7,12.0,30.46,NW,304,0.0,-999.0,53,-99.99,,,0.00,0,weatherlink.com 1.10,2013-04-24 08:43:00,
2013-04-24 02:58:00,27.8,13.0,30.45,WNW,300,0.0,-999.0,53,-99.99,,,0.00,0,weatherlink.com 1.10,2013-04-24 08:58:00,
2013-04-24 03:14:00,27.8,13.0,30.45,WNW,294,0.0,-999.0,53,-99.99,,,0.00,0,weatherlink.com 1.10,2013-04-24 09:14:00,
2013-04-24 03:29:00,27.4,13.0,30.45,WNW,294,2.0,-999.0,56,-99.99,,,0.00,0,weatherlink.com 1.10,2013-04-24 09:29:00,
2013-04-24 03:44:00,26.6,14.0,30.45,WNW,293,0.0,-999.0,60,-99.99,,,0.00,0,weatherlink.com 1.10,2013-04-24 09:44:00,
2013-04-24 03:59:00,26.9,15.0,30.46,WNW,287,1.0,-999.0,60,-99.99,,,0.00,0,weatherlink.com 1.10,2013-04-24 09:59:00,
2013-04-24 04:14:00,27.2,14.0,30.45,WNW,286,0.0,-999.0,57,-99.99,,,0.00,0,weatherlink.com 1.10,2013-04-24 10:14:00,
2013-04-24 04:29:00,27.1,15.0,30.46,WNW,288,3.0,-999.0,60,-99.99,,,0.00,0,weatherlink.com 1.10,2013-04-24 10:29:00,
2013-04-24 04:44:00,25.4,14.0,30.46,NE,40,4.0,-999.0,62,-99.99,,,0.00,0,weatherlink.com 1.10,2013-04-24 10:44:00,
2013-04-24 04:59:00,23.8,14.0,30.46,North,5,0.0,-999.0,67,-99.99,,,0.00,0,weatherlink.com 1.10,2013-04-24 10:59:00,
2013-04-24 05:14:00,23.7,15.0,30.46,North,5,0.0,-999.0,70,-99.99,,,0.00,0,weatherlink.com 1.10,2013-04-24 11:14:00,
2013-04-24 05:29:00,24.1,17.0,30.46,North,5,0.0,-999.0,73,-99.99,,,0.00,0,weatherlink.com 1.10,2013-04-24 11:29:00,
2013-04-24 05:44:00,25.4,15.0,30.46,North,5,0.0,-999.0,65,-99.99,,,0.00,0,weatherlink.com 1.10,2013-04-24 11:44:00,
2013-04-24 05:59:00,25.3,16.0,30.46,North,10,0.0,-999.0,68,-99.99,,,0.00,0,weatherlink.com 1.10,2013-04-24 11:59:00,
2013-04-24 06:14:00,25.1,16.0,30.46,WNW,296,0.0,-999.0,68,-99.99,,,0.00,0,weatherlink.com 1.10,2013-04-24 12:14:00,
2013-04-24 06:29:00,23.2,15.0,30.47,North,9,0.0,-999.0,72,-99.99,,,0.00,11,weatherlink.com 1.10,2013-04-24 12:29:00,
2013-04-24 06:44:00,22.6,16.0,30.47,North,5,2.0,-999.0,76,-99.99,,,0.00,25,weatherlink.com 1.10,2013-04-24 12:44:00,
2013-04-24 06:59:00,24.1,17.0,30.48,NNE,16,3.0,-999.0,73,-99.99,,,0.00,58,weatherlink.com 1.10,2013-04-24 12:59:00,
2013-04-24 07:14:00,25.9,18.0,30.48,NNE,22,3.0,-999.0,72,-99.99,,,0.00,107,weatherlink.com 1.10,2013-04-24 13:14:00,
2013-04-24 07:29:00,27.4,19.0,30.49,North,355,0.0,-999.0,70,-99.99,,,0.00,163,weatherlink.com 1.10,2013-04-24 13:29:00,
2013-04-24 07:44:00,28.7,20.0,30.49,NNE,31,4.0,-999.0,71,-99.99,,,0.00,221,weatherlink.com 1.10,2013-04-24 13:44:00,
2013-04-24 07:59:00,30.1,21.0,30.50,North,360,4.0,-999.0,69,-99.99,,,0.00,272,weatherlink.com 1.10,2013-04-24 13:59:00,
2013-04-24 08:14:00,31.5,19.0,30.50,North,355,4.0,-999.0,60,-99.99,,,0.00,320,weatherlink.com 1.10,2013-04-24 14:14:00,
2013-04-24 08:29:00,32.6,20.0,30.51,WNW,300,0.0,-999.0,60,-99.99,,,0.00,374,weatherlink.com 1.10,2013-04-24 14:29:00,
2013-04-24 08:45:00,33.5,19.0,30.50,NE,41,2.0,-999.0,55,-99.99,,,0.00,422,weatherlink.com 1.10,2013-04-24 14:45:00,
2013-04-24 09:00:00,34.8,19.0,30.50,NE,40,5.0,-999.0,53,-99.99,,,0.00,473,weatherlink.com 1.10,2013-04-24 15:00:00,
2013-04-24 09:15:00,35.5,18.0,30.50,ENE,58,5.0,-999.0,50,-99.99,,,0.00,524,weatherlink.com 1.10,2013-04-24 15:15:00,
2013-04-24 09:30:00,36.2,19.0,30.50,NNE,23,3.0,-999.0,49,-99.99,,,0.00,568,weatherlink.com 1.10,2013-04-24 15:30:00,
2013-04-24 09:45:00,37.7,19.0,30.50,NE,53,2.0,-999.0,47,-99.99,,,0.00,613,weatherlink.com 1.10,2013-04-24 15:45:00,
2013-04-24 10:00:00,38.3,18.0,30.50,NE,55,1.0,-999.0,44,-99.99,,,0.00,659,weatherlink.com 1.10,2013-04-24 16:00:00,
2013-04-24 10:15:00,37.9,17.0,30.50,SSE,163,4.0,-999.0,43,-99.99,,,0.00,698,weatherlink.com 1.10,2013-04-24 16:15:00,
2013-04-24 10:30:00,38.0,19.0,30.50,ESE,117,4.0,-999.0,46,-99.99,,,0.00,735,weatherlink.com 1.10,2013-04-24 16:30:00,
2013-04-24 10:45:00,38.4,19.0,30.50,East,97,8.0,-999.0,45,-99.99,,,0.00,773,weatherlink.com 1.10,2013-04-24 16:45:00,
2013-04-24 11:00:00,38.8,18.0,30.51,SSE,165,4.0,-999.0,44,-99.99,,,0.00,805,weatherlink.com 1.10,2013-04-24 17:00:00,
2013-04-24 11:15:00,39.8,19.0,30.50,South,174,0.0,-999.0,43,-99.99,,,0.00,837,weatherlink.com 1.10,2013-04-24 17:15:00,
2013-04-24 11:45:00,40.8,16.0,30.50,ESE,123,0.0,-999.0,36,-99.99,,,0.00,881,weatherlink.com 1.10,2013-04-24 17:45:00,
2013-04-24 12:00:00,42.7,17.0,30.49,ESE,111,2.0,-999.0,36,-99.99,,,0.00,900,weatherlink.com 1.10,2013-04-24 18:00:00,
2013-04-24 12:15:00,42.7,17.0,30.49,South,173,6.0,-999.0,35,-99.99,,,0.00,919,weatherlink.com 1.10,2013-04-24 18:15:00,
2013-04-24 12:31:00,42.5,14.0,30.48,SE,138,0.0,-999.0,32,-99.99,,,0.00,928,weatherlink.com 1.10,2013-04-24 18:31:00,
2013-04-24 12:46:00,44.7,16.0,30.47,ESE,107,2.0,-999.0,31,-99.99,,,0.00,939,weatherlink.com 1.10,2013-04-24 18:46:00,
2013-04-24 13:01:00,43.3,13.0,30.46,South,184,4.0,-999.0,29,-99.99,,,0.00,942,weatherlink.com 1.10,2013-04-24 19:01:00,
2013-04-24 13:16:00,43.8,12.0,30.45,SSE,163,0.0,-999.0,28,-99.99,,,0.00,944,weatherlink.com 1.10,2013-04-24 19:16:00,
2013-04-24 13:31:00,44.9,13.0,30.44,South,172,0.0,-999.0,28,-99.99,,,0.00,935,weatherlink.com 1.10,2013-04-24 19:31:00,
2013-04-24 13:46:00,47.4,15.0,30.44,SE,125,2.0,-999.0,27,-99.99,,,0.00,930,weatherlink.com 1.10,2013-04-24 19:46:00,
2013-04-24 14:01:00,47.0,14.0,30.43,SSE,163,4.0,-999.0,27,-99.99,,,0.00,918,weatherlink.com 1.10,2013-04-24 20:01:00,
2013-04-24 14:16:00,46.5,13.0,30.42,NE,48,2.0,-999.0,26,-99.99,,,0.00,900,weatherlink.com 1.10,2013-04-24 20:16:00,
2013-04-24 14:31:00,47.3,15.0,30.42,SSE,163,6.0,-999.0,27,-99.99,,,0.00,888,weatherlink.com 1.10,2013-04-24 20:31:00,
2013-04-24 14:46:00,48.0,14.0,30.41,SW,228,0.0,-999.0,26,-99.99,,,0.00,865,weatherlink.com 1.10,2013-04-24 20:46:00,
2013-04-24 15:01:00,48.4,15.0,30.40,SSE,167,7.0,-999.0,26,-99.99,,,0.00,840,weatherlink.com 1.10,2013-04-24 21:01:00,
2013-04-24 15:16:00,48.9,14.0,30.39,SE,136,0.0,-999.0,25,-99.99,,,0.00,807,weatherlink.com 1.10,2013-04-24 21:16:00,
2013-04-24 15:31:00,50.0,14.0,30.38,South,169,5.0,-999.0,24,-99.99,,,0.00,779,weatherlink.com 1.10,2013-04-24 21:31:00,
2013-04-24 15:46:00,48.9,13.0,30.37,ESE,107,2.0,-999.0,24,-99.99,,,0.00,749,weatherlink.com 1.10,2013-04-24 21:46:00,
2013-04-24 16:01:00,50.0,15.0,30.36,South,178,5.0,-999.0,25,-99.99,,,0.00,707,weatherlink.com 1.10,2013-04-24 22:01:00,
2013-04-24 16:16:00,50.5,15.0,30.35,WSW,239,5.0,-999.0,24,-99.99,,,0.00,663,weatherlink.com 1.10,2013-04-24 22:16:00,
2013-04-24 16:31:00,50.3,16.0,30.34,SSW,210,4.0,-999.0,25,-99.99,,,0.00,619,weatherlink.com 1.10,2013-04-24 22:31:00,
2013-04-24 16:46:00,51.0,15.0,30.33,SSE,168,13.0,-999.0,24,-99.99,,,0.00,487,weatherlink.com 1.10,2013-04-24 22:46:00,
2013-04-24 17:01:00,51.7,16.0,30.33,SSW,198,8.0,-999.0,24,-99.99,,,0.00,541,weatherlink.com 1.10,2013-04-24 23:01:00,
2013-04-24 17:16:00,51.5,15.0,30.32,SW,216,6.0,-999.0,23,-99.99,,,0.00,492,weatherlink.com 1.10,2013-04-24 23:16:00,
2013-04-24 17:31:00,51.5,14.0,30.31,SW,221,11.0,-999.0,22,-99.99,,,0.00,450,weatherlink.com 1.10,2013-04-24 23:31:00,
2013-04-24 17:46:00,51.6,14.0,30.31,WSW,251,15.0,-999.0,22,-99.99,,,0.00,394,weatherlink.com 1.10,2013-04-24 23:46:00,
2013-04-24 18:01:00,51.3,13.0,30.31,SW,219,8.0,-999.0,22,-99.99,,,0.00,346,weatherlink.com 1.10,2013-04-25 00:01:00,
2013-04-24 18:16:00,51.4,15.0,30.31,SSW,201,9.0,-999.0,23,-99.99,,,0.00,297,weatherlink.com 1.10,2013-04-25 00:16:00,
2013-04-24 18:31:00,51.2,13.0,30.30,SW,220,12.0,-999.0,22,-99.99,,,0.00,248,weatherlink.com 1.10,2013-04-25 00:31:00,
2013-04-24 18:46:00,51.2,13.0,30.30,WSW,240,5.0,-999.0,22,-99.99,,,0.00,181,weatherlink.com 1.10,2013-04-25 00:46:00,
2013-04-24 19:01:00,51.2,13.0,30.29,SSW,205,3.0,-999.0,22,-99.99,,,0.00,125,weatherlink.com 1.10,2013-04-25 01:01:00,
2013-04-24 19:16:00,50.8,14.0,30.28,SW,218,4.0,-999.0,23,-99.99,,,0.00,77,weatherlink.com 1.10,2013-04-25 01:16:00,
2013-04-24 19:31:00,50.4,14.0,30.27,SW,217,2.0,-999.0,23,-99.99,,,0.00,35,weatherlink.com 1.10,2013-04-25 01:31:00,
2013-04-24 19:47:00,49.4,15.0,30.27,SSW,200,2.0,-999.0,25,-99.99,,,0.00,19,weatherlink.com 1.10,2013-04-25 01:47:00,
2013-04-24 20:02:00,48.3,16.0,30.27,SSW,198,2.0,-999.0,28,-99.99,,,0.00,7,weatherlink.com 1.10,2013-04-25 02:02:00,
2013-04-24 20:17:00,47.2,15.0,30.27,SSW,200,1.0,-999.0,28,-99.99,,,0.00,0,weatherlink.com 1.10,2013-04-25 02:17:00,
2013-04-24 20:32:00,47.0,14.0,30.28,SSW,203,2.0,-999.0,27,-99.99,,,0.00,0,weatherlink.com 1.10,2013-04-25 02:32:00,
2013-04-24 20:47:00,46.8,16.0,30.28,SSW,213,0.0,-999.0,29,-99.99,,,0.00,0,weatherlink.com 1.10,2013-04-25 02:47:00,
2013-04-24 21:02:00,46.1,17.0,30.28,SW,217,0.0,-999.0,31,-99.99,,,0.00,0,weatherlink.com 1.10,2013-04-25 03:02:00,
2013-04-24 21:17:00,45.6,17.0,30.28,SW,217,0.0,-999.0,32,-99.99,,,0.00,0,weatherlink.com 1.10,2013-04-25 03:17:00,
2013-04-24 21:32:00,45.5,17.0,30.28,WSW,238,1.0,-999.0,32,-99.99,,,0.00,0,weatherlink.com 1.10,2013-04-25 03:32:00,
2013-04-24 21:47:00,44.9,18.0,30.28,SW,232,0.0,-999.0,34,-99.99,,,0.00,0,weatherlink.com 1.10,2013-04-25 03:47:00,
2013-04-24 22:02:00,44.2,19.0,30.28,SW,232,0.0,-999.0,36,-99.99,,,0.00,0,weatherlink.com 1.10,2013-04-25 04:02:00,
2013-04-24 22:17:00,43.4,18.0,30.28,West,267,3.0,-999.0,36,-99.99,,,0.00,0,weatherlink.com 1.10,2013-04-25 04:17:00,
2013-04-24 22:31:00,42.5,19.0,30.28,West,275,2.0,-999.0,39,-99.99,,,0.00,0,weatherlink.com 1.10,2013-04-25 04:31:00,
2013-04-24 22:46:00,42.0,19.0,30.28,West,279,4.0,-999.0,39,-99.99,,,0.00,0,weatherlink.com 1.10,2013-04-25 04:46:00,
2013-04-24 23:02:00,42.6,18.0,30.27,West,278,2.0,-999.0,37,-99.99,,,0.00,0,weatherlink.com 1.10,2013-04-25 05:02:00,
2013-04-24 23:16:00,42.8,19.0,30.27,WSW,240,0.0,-999.0,38,-99.99,,,0.00,0,weatherlink.com 1.10,2013-04-25 05:16:00,
2013-04-24 23:33:00,42.0,17.0,30.27,WSW,242,0.0,-999.0,37,-99.99,,,0.00,0,weatherlink.com 1.10,2013-04-25 05:33:00,
2013-04-24 23:47:00,42.3,16.0,30.26,WNW,284,0.0,-999.0,35,-99.99,,,0.00,0,weatherlink.com 1.10,2013-04-25 05:47:00,